Weather History for KMEI - June, 2013

Change the Weather History Date:

Friday, June 14, 2013

  Actual Average Record
Temperature  
Mean Temperature 77 °F 78 °F  
Max Temperature 87 °F 89 °F 103 °F (1963)
Min Temperature 67 °F 66 °F 55 °F (1985)
Degree Days  
Heating Degree Days 0 0  
Month to date heating degree days 0 0  
Since 1 June heating degree days 0 0  
Since 1 July heating degree days 2512 2553  
Cooling Degree Days 12 13  
Month to date cooling degree days 187 158  
Year to date cooling degree days 447 441  
Since 1 June cooling degree days 187 158  
Growing Degree Days 28 (Base 50)    
Moisture  
Dew Point 68 °F    
Average Humidity 74    
Maximum Humidity 100    
Minimum Humidity 48    
Precipitation  
Precipitation 0.00 in 0.14 in 3.50 in (1940)
Month to date precipitation 4.08 1.98  
Year to date precipitation 38.71 27.41  
Sea Level Pressure  
Sea Level Pressure 29.94 in    
Wind  
Wind Speed 6 mph (North)    
Max Wind Speed 15 mph    
Max Gust Speed 21 mph    
Visibility 10 miles    
Events Rain , Thunderstorm    
T = Trace of Precipitation, MM = Missing Value Source: NWS Daily Summary

Daily Weather History Graph

Daily Weather History Graph

Search for Another Location

Airport or City:

Trip Planner

Search our weather history database for the weather conditions in past years. The results will help you decide how hot, cold, wet, or windy it might be!

Date:

Astronomy

Jun. 14, 2013 Rise Set
Actual Time 5:47 AM CDT 8:03 PM CDT
Civil Twilight 5:19 AM CDT 8:31 PM CDT
Nautical Twilight 4:44 AM CDT 9:06 PM CDT
Astronomical Twilight 4:06 AM CDT 9:44 PM CDT
Moon 11:06 AM CDT (6/14) 11:57 PM CDT (6/14)
Length of Visible Light 15h 12m
Length of Day
14h 15m
Waxing Crescent, 30% of the Moon is Illuminated
Jun 14
Waxing Crescent
Jun 16
First Quarter
Jun 23
Full
Jun 29
Last Quarter
Jul 8
New

Hourly Weather History & Observations

Time (CDT) Temp. Heat Index Dew Point Humidity Pressure Visibility Wind Dir Wind Speed Gust Speed Precip Events Conditions
12:05 AM 77.0 °F - 75.2 °F 94% 29.92 in 10.0 mi NNE 10.4 mph - 0.00 in Rain , Thunderstorm Light Rain
12:53 AM 77.0 °F - 75.2 °F 94% 29.93 in 10.0 mi North 6.9 mph - 0.00 in   Partly Cloudy
12:58 AM 77.0 °F - 75.9 °F 96% 29.92 in 9.0 mi North 3.5 mph - 0.00 in   Clear
1:58 AM 75.9 °F - 73.0 °F 91% 29.91 in 10.0 mi North 5.8 mph - N/A   Clear
2:58 AM 73.9 °F - 72.0 °F 93% 29.90 in 10.0 mi NW 3.5 mph - N/A   Clear
3:58 AM 72.0 °F - 70.0 °F 93% 29.90 in 10.0 mi North 5.8 mph - N/A   Clear
4:58 AM 71.1 °F - 69.1 °F 93% 29.90 in 9.0 mi North 5.8 mph - N/A   Clear
5:58 AM 70.0 °F - 68.0 °F 93% 29.93 in 8.0 mi North 3.5 mph - N/A   Clear
6:58 AM 71.1 °F - 68.0 °F 90% 29.94 in 10.0 mi Calm Calm - N/A   Clear
7:58 AM 73.9 °F - 66.9 °F 79% 29.96 in 10.0 mi North 6.9 mph - N/A   Clear
8:58 AM 77.0 °F - 66.9 °F 71% 29.97 in 10.0 mi Variable 4.6 mph - N/A   Clear
9:58 AM 79.0 °F - 68.0 °F 69% 29.97 in 10.0 mi NW 6.9 mph - N/A   Clear
10:58 AM 82.0 °F 84.9 °F 68.0 °F 62% 29.96 in 10.0 mi North 9.2 mph - N/A   Clear
11:58 AM 82.9 °F 85.8 °F 68.0 °F 60% 29.96 in 10.0 mi NNW 11.5 mph - N/A   Partly Cloudy
12:58 PM 84.0 °F 86.3 °F 66.0 °F 55% 29.95 in 10.0 mi NNW 10.4 mph 19.6 mph N/A   Scattered Clouds
1:58 PM 84.9 °F 86.1 °F 64.0 °F 49% 29.94 in 10.0 mi North 13.8 mph - N/A   Clear
2:58 PM 84.9 °F 85.4 °F 62.1 °F 46% 29.93 in 10.0 mi NNE 11.5 mph 20.7 mph N/A   Clear
3:58 PM 84.9 °F 85.4 °F 62.1 °F 46% 29.93 in 10.0 mi North 10.4 mph - N/A   Clear
4:58 PM 84.9 °F 85.9 °F 63.0 °F 48% 29.93 in 10.0 mi North 8.1 mph - N/A   Clear
5:58 PM 84.0 °F 84.5 °F 62.1 °F 47% 29.92 in 10.0 mi North 10.4 mph - N/A   Clear
6:58 PM 82.0 °F 83.1 °F 63.0 °F 52% 29.94 in 10.0 mi North 10.4 mph - N/A   Clear
7:58 PM 75.9 °F - 66.0 °F 71% 29.94 in 10.0 mi NNW 4.6 mph - N/A   Clear
8:58 PM 73.0 °F - 68.0 °F 84% 29.95 in 10.0 mi Calm Calm - N/A   Clear
9:58 PM 71.1 °F - 66.9 °F 87% 29.97 in 10.0 mi Calm Calm - N/A   Clear
10:58 PM 68.0 °F - 66.0 °F 93% 29.99 in 10.0 mi Calm Calm - N/A   Clear
11:58 PM 66.9 °F - 66.0 °F 97% 29.99 in 9.0 mi Calm Calm - N/A   Clear